Weather History for Richmond, VA

Change the Weather History Date:

Monday, June 17, 2013

  Actual Average Record
Temperature  
Mean Temperature 78 °F 76 °F  
Max Temperature 85 °F 87 °F 99 °F (1944)
Min Temperature 71 °F 65 °F 48 °F (1961)
Degree Days  
Heating Degree Days 0 0  
Month to date heating degree days 0 5  
Since 1 June heating degree days 0 5  
Since 1 July heating degree days 3690 3771  
Cooling Degree Days 13 11  
Month to date cooling degree days 184 152  
Year to date cooling degree days 397 313  
Since 1 June cooling degree days 184 152  
Growing Degree Days 28 (Base 50)    
Moisture  
Dew Point 69 °F    
Average Humidity 76    
Maximum Humidity 90    
Minimum Humidity 61    
Precipitation  
Precipitation 0.17 in 0.14 in 2.22 in (1930)
Month to date precipitation 4.56 2.28  
Year to date precipitation 23.44 19.17  
Snow  
Snow 0.00 in 0.00 in 0.00 in (2002)
Month to date snowfall 0.0 0.0  
Since 1 July snowfall 8.6 10.3  
Snow Depth 0.00 in    
Sea Level Pressure  
Sea Level Pressure 29.98 in    
Wind  
Wind Speed 8 mph (SSW)    
Max Wind Speed 16 mph    
Max Gust Speed 18 mph    
Visibility 9 miles    
Events Rain    
T = Trace of Precipitation, MM = Missing Value Source: NWS Daily Summary

Daily Weather History Graph

Daily Weather History Graph

Search for Another Location

Airport:

Trip Planner

Search our weather history database for the weather conditions in past years. The results will help you decide how hot, cold, wet, or windy it might be!

Date:

Astronomy

Jun. 17, 2013 Rise Set
Actual Time 5:47 AM EDT 8:32 PM EDT
Civil Twilight 5:16 AM EDT 9:04 PM EDT
Nautical Twilight 4:37 AM EDT 9:43 PM EDT
Astronomical Twilight 3:53 AM EDT 10:27 PM EDT
Moon 2:15 PM EDT (6/17) 1:15 AM EDT (6/17)
Length of Visible Light 15h 47m
Length of Day
14h 45m
First Quarter, 60% of the Moon is Illuminated
Jun 17
First Quarter
Jun 23
Full
Jun 30
Last Quarter
Jul 8
New
Jul 15
First Quarter

Hourly Weather History & Observations

Time (EDT) Temp. Heat Index Dew Point Humidity Pressure Visibility Wind Dir Wind Speed Gust Speed Precip Events Conditions
12:11 AM 80.6 °F 83.2 °F 68.0 °F 65% 29.97 in 10.0 mi WNW 6.9 mph - 0.00 in   Overcast
12:54 AM 79.0 °F - 68.0 °F 69% 29.98 in 10.0 mi West 8.1 mph - 0.00 in   Overcast
1:54 AM 79.0 °F - 68.0 °F 69% 29.98 in 10.0 mi WSW 9.2 mph - N/A   Overcast
2:54 AM 78.1 °F - 66.9 °F 68% 29.97 in 10.0 mi WSW 6.9 mph - 0.00 in Rain Light Rain
3:54 AM 75.0 °F - 68.0 °F 79% 29.98 in 10.0 mi SW 8.1 mph - 0.00 in   Overcast
4:54 AM 72.0 °F - 68.0 °F 87% 29.99 in 10.0 mi SSW 5.8 mph - 0.03 in   Mostly Cloudy
5:54 AM 71.1 °F - 66.9 °F 87% 30.00 in 10.0 mi SSW 9.2 mph - 0.00 in Rain Light Rain
6:54 AM 72.0 °F - 66.9 °F 84% 30.02 in 5.0 mi SW 6.9 mph - 0.02 in Rain Light Rain
7:20 AM 71.6 °F - 68.0 °F 88% 30.01 in 2.5 mi SSW 9.2 mph - 0.02 in Rain Light Rain
7:54 AM 71.1 °F - 68.0 °F 90% 30.01 in 3.0 mi SSW 9.2 mph - 0.11 in Rain Light Rain
8:54 AM 71.1 °F - 68.0 °F 90% 30.02 in 8.0 mi SW 6.9 mph - 0.00 in   Overcast
9:54 AM 73.0 °F - 70.0 °F 90% 30.00 in 9.0 mi SSW 5.8 mph - 0.01 in   Overcast
10:54 AM 75.0 °F - 70.0 °F 84% 30.00 in 9.0 mi SSW 8.1 mph - N/A   Overcast
11:33 AM 75.2 °F - 71.6 °F 89% 29.99 in 8.0 mi SSW 6.9 mph - N/A   Overcast
11:54 AM 75.0 °F - 71.1 °F 87% 30.00 in 8.0 mi SW 4.6 mph - N/A   Overcast
12:54 PM 75.9 °F - 71.1 °F 85% 29.99 in 8.0 mi SSW 8.1 mph - N/A   Overcast
1:54 PM 80.1 °F 83.8 °F 72.0 °F 76% 29.98 in 9.0 mi SSW 6.9 mph - N/A   Overcast
2:54 PM 82.9 °F 87.5 °F 71.1 °F 67% 29.97 in 10.0 mi SSW 8.1 mph - N/A   Overcast
3:54 PM 84.0 °F 88.4 °F 70.0 °F 63% 29.95 in 10.0 mi South 13.8 mph 17.3 mph N/A   Mostly Cloudy
4:54 PM 84.9 °F 89.4 °F 70.0 °F 61% 29.94 in 10.0 mi South 11.5 mph - N/A   Mostly Cloudy
5:54 PM 84.0 °F 87.8 °F 69.1 °F 61% 29.94 in 10.0 mi SW 11.5 mph - N/A   Mostly Cloudy
6:54 PM 82.0 °F 85.9 °F 70.0 °F 67% 29.94 in 10.0 mi SSW 5.8 mph - N/A   Mostly Cloudy
7:54 PM 79.0 °F - 71.1 °F 77% 29.92 in 10.0 mi South 5.8 mph - N/A   Mostly Cloudy
8:54 PM 78.1 °F - 72.0 °F 81% 29.93 in 10.0 mi SSE 6.9 mph - N/A   Mostly Cloudy
9:54 PM 77.0 °F - 72.0 °F 84% 29.94 in 10.0 mi South 8.1 mph - N/A   Mostly Cloudy
10:54 PM 75.9 °F - 72.0 °F 87% 29.96 in 10.0 mi South 11.5 mph - N/A   Mostly Cloudy
11:54 PM 75.0 °F - 70.0 °F 84% 29.97 in 10.0 mi SSW 4.6 mph - N/A   Overcast